Погода в Арке

Погода в Арке : погода сейчас, прогноз погоды и архив. Всё, что Вы хотите узнать о погоде в Арке!

Хотите узнать прогноз погоды в Арке? Тогда Вам сюда: Погода в Арке

Поиск расширенной информации на нашем сайте:

Другие новости

Новости СМИ2

Главная страница сайта

Новости сайта

02.10.2013

Напоминаем, что на нашем новом сайте вы можете получить высокодетализированные прогнозы погоды по пунктам России, СНГ и мира (включающие важные для авиации метеовеличины, такие как направление и скорость ветра, видимость, явления погоды, количество и форма облачности, нижняя и верхняя граница облачности), а также ознакомиться с разнообразными материалами по авиационной метеорологии и подборкой полезных ссылок на эту тему.

Сайт Метеоцентр.Азия посвящён разработке технологий оптимизации авиаметеорологического обслуживания, включая проектирование и перспективное создание нескольких автоматизированных авиаметеорологических систем:
- система выпуска высокодетальных прогностических карт явлений погоды для нижнего воздушного пространства по России и ближнему зарубежью;
- система верификации прогнозов TAF (выпускаемых синоптиками официальных АМСГ РФ и ближнего зарубежья) и AUTOTAF (выпускаемых сайтом Метеоцентр.Азия) - выявление ошибок, онлайн-сопоставление с фактической погодой METAR, автоматическое внесение коррективов в прогнозы при резком отклонении фактической погоды от прогноза, подсчёт оправдываемости прогнозов по элементам и в целом;
- система обработки, анализа и отображения авиаметеорологической информации для применения провайдерами метеорологической информации.

Рекомендуем: Раздолье электронная отчетность электронная отчетность.

Погода в Арке - сегодня

Время (UTC), дата Ветер
(°,м/с) 
Видим.   Явления Облачность Т
(°С)
Тd
(°С)
f(%) Тe
(°С)
Pmin
(гПа)
dP
(гПа)
Po
(мм)
O2
(г/м3)
Тmin Tmax R s Состояние
почвы
09 26.05.17 150 (ЮВ) 20000 м    6/5 600 м верхняя 
[Sc|Ci fib]
+8.1 +2.1 66 +8  1002.4  -0.1  734  287    +9.6       
12 26.05.17 160 (Ю) 20000 м    9/6 600 м средняя, верхняя 
[Sc|Ac trans|Ci fib]
+5.2 +2.1 80 +5  1003.8  1.2  735  290           
15 26.05.17 170 (Ю) 20000 м    6/3 1000 м верхняя 
[Sc|Ci fib]
+2 +1.3 95 +3  1004.7  0.5  735  294           
18 26.05.17 тихо ()   20000 м    10/10 300 м 
[St]
+0.8 +0.3 96 +1  1005.2  0.5  736  295           
00 27.05.17 160 (Ю) 20000 м    8/3 1000 м средняя, верхняя 
[Sc|Ac trans|Ci fib]
+10.6 +2.5 57 +11  1003.9  -1.1  735  285           
03 27.05.17 160 (Ю) 20000 м    9/3 1000 м средняя, верхняя 
[Sc|Ac trans|Ci fib]
+15.8 -3.9 26 +17  1001.6  -1.9  734  280           
06 27.05.17 150 (ЮВ) 20000 м    9/5 1000 м средняя 
[Sc|Ac trans]
+16.1 -1.1 31 +16  1000.7  -0.8  733  279           
12 27.05.17 160 (Ю) 20000 м    8/3 1000 м средняя, верхняя 
[Sc|Ac trans|Ci fib]
+7.9 +3.2 72 +7  1002.5  1.1  734  287           
15 27.05.17 160 (Ю) 20000 м    ясно 
+2.7 +1.7 93 +3  1003.9  0.9  735  293           
18 27.05.17 тихо ()   0200 м  туман  ?/?  
+1 +0.8 99 +1  1004.2  0.2  735  295           
21 27.05.17 тихо ()   20000 м  в посл. час туман  6/0 верхняя 
[Ci fib]
+4.9 +4.4 97 +5  1003.6  -0.3  735  290  +0.2        влажная 
00 28.05.17 270 (З) 20000 м  {туман}  6/0 верхняя 
[Ci fib]
+16.3 -5 23 +17  1001.1  -1.5  734  279           
03 28.05.17 200 (Ю) 20000 м    8/0 верхняя 
[Ci fib]
+19.2 -5.3 19 +20  1000  -0.8  733  276           
06 28.05.17 040 (СВ) 20000 м    9/0 верхняя 
[Ci fib]
+21.4 -6.2 15 +21  998.9  -0.9  732  274           
12 28.05.17 140 (ЮВ) 20000 м    10/0 средняя, верхняя 
[Ac trans|Cs]
+6.4 +3.1 79 +5  1004  3.1  735  289           
15 28.05.17 150 (ЮВ) 20000 м    9/0 средняя, верхняя 
[Ac trans|Ci fib]
+3.6 +2.7 94 +3  1006.1  1.8  736  292           
18 28.05.17 110 (В) 0500 м  туман  ?/?  
+3.3 +2.7 96 +4  1007.4  1.2  737  293           
00 29.05.17 180 (Ю) 20000 м  {туман}  10/0 средняя, верхняя 
[Ac trans|Cs]
+12.5 +3.4 54 +14  1007.6  0.1  738  284           
03 29.05.17 160 (Ю) 20000 м    10/0 средняя 
[Ac und]
+14.5 +4.3 50 +15  1007.3  0.1  738  282           
06 29.05.17 160 (Ю) 20000 м    10/0 средняя 
[Ac und]
+11.3 +5 65 +11  1009.1  1.5  739  285           
12 29.05.17 350 (С) 20000 м    10/4 1000 м средняя 
[Sc|Ac und]
+7.7 +3.5 75 +9  1012  1.3  741  290           
15 29.05.17 тихо ()   20000 м    8/0 средняя 
[Ac trans]
+4.1 +2.6 90 +4  1012.6  0.3  741  294           
18 29.05.17 тихо ()   20000 м    3/0 средняя, верхняя 
[Ac trans|Ci fib]
-0 -0.6 96 1013.1  0.1  741  299           
00 30.05.17 170 (Ю) 20000 м    6/0 верхняя 
[Ci fib]
+14.8 -3.7 28 +15  1010.9  -0.6  741  283           
03 30.05.17 160 (Ю) 4{10}  20000 м    6/0 верхняя 
[Ci fib]
+17.4 -5.6 20 +18  1009.6  -1.1  740  281           
Время (UTC), дата Ветер
(°,м/с) 
Видим.   Явления Облачность Т
(°С)
Тd
(°С)
f(%) Тe
(°С)
Pmin
(гПа)
dP
(гПа)
Po
(мм)
O2
(г/м3)
Тmin Tmax R s Состояние
почвы

Для получения пояснительной информации подведите курсор к названию столбца.

ПОГОДА в Арке - архив

Всё, что Вы хотите узнать о погоде в Арке - удобно и подробно!

Выберите нужную дату (начиная с 1 января 2015* года) и нажмите кнопку "Найти".
Будут отображены архивные сводки погоды по пункту Арка, начиная с указанной даты.


Отображать данные в формате CSV (для использования в таблицах Excel)


Внимание! Наш архив погоды предназначен исключительно для личного некоммерческого использования в познавательных целях. Если Вам необходимы официальные справки о состоянии погоды (для производственных, юридических, коммерческих и т.п. целей), обращайтесь в органы Росгидромета.

*Примечание: данная дата относится к архиву по метеостанциям СССР (Россия, СНГ, Балтия).
Архив по метеостанциям Зарубежной Европы и Азии (кроме Китая) хранится 10 дней, по другим регионам земного шара (Китай, Африка, Америка, Австралия, Океания) - 1 день.

Арка - район местоположения метеостанции


Название, широта, долгота, высота метеостанции:
Арка 60.1°ш. 142.3°д. 198 м над ур. моря [Российская Федерация]

Дополнительная информация

В oтличие oт бoльшинства пoгoдных сайтoв мы публикуем пoдрoбную метеoинфoрмацию в детальнoм прoфессиoнальнoм фoрмате.

Характеристики температуры и влажнoсти вoздуха измеряются на высoте 2 м в тени вдали oт зданий и деревьев.
Скoрoсть ветра измеряется на высoте 10 м (на урoвне рoста челoвека скoрoсть ветра ниже в 1.5-2 раза). Если метеoстанция нахoдится в гoрoде или в лесу, тo скoрoсть ветра занижена на 2-4 м/с пo сравнению с oткрытым местoм. Скoрoсть ветра над акватoриями крупных рек и oзёр, а также на вершинах хoлмoв на 2-5 м/с выше, чем в oбычных услoвиях.
Атмoсфернoе давление в разных тoчках местнoсти мoжет значительнo oтличаться oт давления на метеoстанции, в зависимoсти oт услoвий рельефа (при пoдъёме на 10 м давление пoнижается примернo на 1 мм рт.ст.).